| time (UTC) | temp C | wind direction | speed KPH | gust KPH | rain 1hr cm | rain 24hr cm | rain mn cm | humidity % | barometer mb |
| 20260510190542 | 12 | 47 | 32.2 | 37.0 | 0.00 | 0.00 | 0.00 | 69 | 1011.4 |
| 20260510190045 | 12 | 26 | 30.6 | 38.6 | 0.00 | 0.00 | 0.00 | 70 | 1011.3 |
| 20260510185522 | 12 | 24 | 30.6 | 40.2 | 0.00 | 0.00 | 0.00 | 69 | 1011.4 |
| 20260510185012 | 12 | 29 | 33.8 | 40.2 | 0.00 | 0.00 | 0.00 | 69 | 1011.3 |
| 20260510184502 | 12 | 29 | 33.8 | 38.6 | 0.00 | 0.00 | 0.00 | 69 | 1011.3 |
| 20260510184054 | 12 | 29 | 30.6 | 40.2 | 0.00 | 0.00 | 0.00 | 70 | 1011.4 |
| 20260510183533 | 12 | 30 | 33.8 | 41.8 | 0.00 | 0.00 | 0.00 | 70 | 1011.3 |
| 20260510183023 | 12 | 30 | 35.4 | 45.1 | 0.00 | 0.00 | 0.00 | 70 | 1011.4 |
| 20260510182516 | 12 | 31 | 35.4 | 45.1 | 0.00 | 0.00 | 0.00 | 71 | 1011.4 |
| 20260510182002 | 12 | 32 | 35.4 | 43.5 | 0.00 | 0.00 | 0.00 | 69 | 1011.4 |
| 20260510181554 | 12 | 39 | 37.0 | 43.5 | 0.00 | 0.00 | 0.00 | 70 | 1011.5 |
| 20260510181043 | 12 | 30 | 35.4 | 41.8 | 0.00 | 0.00 | 0.00 | 71 | 1011.3 |
| 20260510180534 | 12 | 23 | 37.0 | 41.8 | 0.00 | 0.00 | 0.00 | 70 | 1011.3 |
| 20260510180022 | 12 | 32 | 37.0 | 41.8 | 0.00 | 0.00 | 0.00 | 70 | 1011.5 |
| 20260510175514 | 12 | 41 | 35.4 | 41.8 | 0.00 | 0.00 | 0.00 | 70 | 1011.6 |
| 20260510175002 | 12 | 33 | 37.0 | 41.8 | 0.00 | 0.00 | 0.00 | 71 | 1011.5 |
| 20260510174603 | 12 | 37 | 37.0 | 41.8 | 0.00 | 0.00 | 0.00 | 71 | 1011.6 |
| 20260510174044 | 12 | 42 | 30.6 | 38.6 | 0.00 | 0.00 | 0.00 | 72 | 1011.5 |
| 20260510173526 | 12 | 48 | 33.8 | 38.6 | 0.00 | 0.00 | 0.00 | 72 | 1011.5 |
| 20260510173012 | 12 | 61 | 30.6 | 38.6 | 0.00 | 0.00 | 0.00 | 72 | 1011.5 |
| 20260510172502 | 12 | 34 | 29.0 | 40.2 | 0.00 | 0.00 | 0.00 | 71 | 1011.6 |
| 20260510172054 | 12 | 42 | 35.4 | 40.2 | 0.00 | 0.00 | 0.00 | 72 | 1011.6 |
| 20260510171549 | 12 | 45 | 30.6 | 40.2 | 0.00 | 0.00 | 0.00 | 72 | 1011.7 |
| 20260510171033 | 12 | 54 | 29.0 | 35.4 | 0.00 | 0.00 | 0.00 | 73 | 1011.7 |
| 20260510170529 | 12 | 43 | 30.6 | 38.6 | 0.00 | 0.00 | 0.00 | 72 | 1011.7 |
| 20260510170013 | 12 | 44 | 33.8 | 38.6 | 0.00 | 0.00 | 0.00 | 73 | 1011.7 |
| 20260510165505 | 12 | 38 | 32.2 | 38.6 | 0.00 | 0.00 | 0.00 | 73 | 1011.8 |
| 20260510165055 | 12 | 40 | 29.0 | 40.2 | 0.00 | 0.00 | 0.00 | 73 | 1011.8 |
| 20260510164602 | 12 | 36 | 33.8 | 40.2 | 0.00 | 0.00 | 0.00 | 73 | 1011.8 |
| 20260510164034 | 12 | 40 | 33.8 | 43.5 | 0.00 | 0.00 | 0.00 | 73 | 1011.8 |
| 20260510163514 | 12 | 47 | 37.0 | 43.5 | 0.00 | 0.00 | 0.00 | 73 | 1011.8 |
| 20260510163005 | 12 | 36 | 37.0 | 45.1 | 0.00 | 0.00 | 0.00 | 73 | 1011.8 |
| 20260510162555 | 12 | 41 | 35.4 | 45.1 | 0.00 | 0.00 | 0.00 | 74 | 1011.8 |
| 20260510162045 | 12 | 37 | 37.0 | 45.1 | 0.00 | 0.00 | 0.00 | 74 | 1012.0 |
| 20260510161538 | 12 | 39 | 37.0 | 43.5 | 0.00 | 0.00 | 0.00 | 73 | 1012.0 |
| 20260510161025 | 12 | 45 | 35.4 | 45.1 | 0.00 | 0.00 | 0.00 | 74 | 1012.0 |
| 20260510160515 | 12 | 42 | 40.2 | 45.1 | 0.00 | 0.00 | 0.00 | 74 | 1012.0 |
| 20260510160005 | 12 | 34 | 37.0 | 43.5 | 0.00 | 0.00 | 0.00 | 74 | 1012.0 |
| 20260510155557 | 12 | 46 | 32.2 | 38.6 | 0.00 | 0.00 | 0.00 | 74 | 1012.1 |
| 20260510155046 | 12 | 51 | 32.2 | 43.5 | 0.00 | 0.00 | 0.00 | 74 | 1012.2 |
| 20260510154536 | 12 | 41 | 32.2 | 41.8 | 0.00 | 0.00 | 0.00 | 73 | 1012.2 |
| 20260510154025 | 12 | 45 | 35.4 | 46.7 | 0.00 | 0.00 | 0.00 | 74 | 1012.2 |
| 20260510153504 | 12 | 52 | 37.0 | 43.5 | 0.00 | 0.00 | 0.00 | 74 | 1012.1 |
| 20260510153104 | 12 | 42 | 32.2 | 41.8 | 0.00 | 0.00 | 0.00 | 74 | 1012.2 |
| 20260510152548 | 12 | 47 | 30.6 | 40.2 | 0.00 | 0.00 | 0.00 | 74 | 1012.2 |
| 20260510152037 | 12 | 65 | 30.6 | 40.2 | 0.00 | 0.00 | 0.00 | 73 | 1012.2 |
| 20260510151526 | 12 | 61 | 30.6 | 40.2 | 0.00 | 0.00 | 0.00 | 74 | 1012.3 |
| 20260510151016 | 13 | 52 | 33.8 | 43.5 | 0.00 | 0.00 | 0.00 | 74 | 1012.3 |
| 20260510150510 | 13 | 55 | 32.2 | 40.2 | 0.00 | 0.00 | 0.00 | 74 | 1012.2 |
| 20260510145547 | 13 | 44 | 32.2 | 38.6 | 0.00 | 0.00 | 0.00 | 74 | 1012.4 |
| 20260510145037 | 13 | 55 | 32.2 | 40.2 | 0.00 | 0.00 | 0.00 | 73 | 1012.4 |
| 20260510144531 | 13 | 44 | 32.2 | 41.8 | 0.00 | 0.00 | 0.00 | 74 | 1012.4 |
| 20260510144006 | 13 | 34 | 35.4 | 45.1 | 0.00 | 0.00 | 0.00 | 74 | 1012.4 |
| 20260510143558 | 13 | 40 | 35.4 | 45.1 | 0.00 | 0.00 | 0.00 | 74 | 1012.4 |
| 20260510143101 | 13 | 38 | 37.0 | 45.1 | 0.00 | 0.00 | 0.00 | 73 | 1012.5 |
| 20260510142537 | 13 | 48 | 35.4 | 45.1 | 0.00 | 0.00 | 0.00 | 72 | 1012.5 |
| 20260510142028 | 13 | 42 | 33.8 | 41.8 | 0.00 | 0.00 | 0.00 | 74 | 1012.5 |
| 20260510141518 | 13 | 46 | 32.2 | 40.2 | 0.00 | 0.00 | 0.00 | 72 | 1012.5 |
| 20260510141008 | 13 | 46 | 33.8 | 40.2 | 0.00 | 0.00 | 0.00 | 73 | 1012.5 |
| 20260510140559 | 13 | 34 | 35.4 | 46.7 | 0.00 | 0.00 | 0.00 | 72 | 1012.6 |
| 20260510140049 | 13 | 36 | 35.4 | 46.7 | 0.00 | 0.00 | 0.00 | 72 | 1012.7 |
| 20260510135538 | 13 | 47 | 35.4 | 45.1 | 0.00 | 0.00 | 0.00 | 73 | 1012.7 |
| 20260510135028 | 13 | 38 | 37.0 | 45.1 | 0.00 | 0.00 | 0.00 | 73 | 1012.7 |
| 20260510134518 | 13 | 45 | 35.4 | 40.2 | 0.00 | 0.00 | 0.00 | 74 | 1012.7 |
| 20260510134109 | 13 | 38 | 37.0 | 40.2 | 0.00 | 0.00 | 0.00 | 74 | 1012.7 |
| 20260510133549 | 12 | 49 | 32.2 | 37.0 | 0.00 | 0.00 | 0.00 | 76 | 1012.7 |
| 20260510133038 | 12 | 48 | 24.1 | 35.4 | 0.00 | 0.00 | 0.00 | 77 | 1012.7 |
| 20260510132531 | 12 | 45 | 27.4 | 35.4 | 0.00 | 0.00 | 0.00 | 77 | 1012.8 |
| 20260510132019 | 12 | 53 | 30.6 | 37.0 | 0.00 | 0.00 | 0.00 | 76 | 1012.8 |
| 20260510131516 | 12 | 49 | 30.6 | 37.0 | 0.00 | 0.00 | 0.00 | 75 | 1012.9 |
| 20260510131059 | 12 | 48 | 32.2 | 37.0 | 0.00 | 0.00 | 0.00 | 76 | 1012.9 |
| 20260510130554 | 12 | 55 | 32.2 | 37.0 | 0.00 | 0.00 | 0.00 | 77 | 1013.0 |
| 20260510130039 | 12 | 57 | 30.6 | 37.0 | 0.00 | 0.00 | 0.00 | 75 | 1013.1 |
| 20260510125529 | 12 | 53 | 32.2 | 41.8 | 0.00 | 0.00 | 0.00 | 74 | 1013.1 |
| 20260510125018 | 12 | 61 | 33.8 | 41.8 | 0.00 | 0.00 | 0.00 | 74 | 1013.3 |
| 20260510124514 | 12 | 55 | 32.2 | 41.8 | 0.00 | 0.00 | 0.00 | 73 | 1013.3 |
| 20260510124101 | 12 | 57 | 30.6 | 40.2 | 0.00 | 0.00 | 0.00 | 74 | 1013.3 |
| 20260510123539 | 12 | 62 | 32.2 | 40.2 | 0.00 | 0.00 | 0.00 | 72 | 1013.4 |
| 20260510123030 | 12 | 57 | 33.8 | 40.2 | 0.00 | 0.00 | 0.00 | 73 | 1013.5 |
| 20260510122519 | 12 | 77 | 32.2 | 41.8 | 0.00 | 0.00 | 0.00 | 71 | 1013.5 |
| 20260510122008 | 12 | 63 | 32.2 | 38.6 | 0.00 | 0.00 | 0.00 | 72 | 1013.6 |
| 20260510121601 | 12 | 59 | 30.6 | 38.6 | 0.00 | 0.00 | 0.00 | 72 | 1013.6 |
| 20260510121050 | 12 | 40 | 32.2 | 41.8 | 0.00 | 0.00 | 0.00 | 72 | 1013.7 |
| 20260510120540 | 12 | 57 | 35.4 | 43.5 | 0.00 | 0.00 | 0.00 | 73 | 1013.7 |
| 20260510120034 | 12 | 63 | 35.4 | 43.5 | 0.00 | 0.00 | 0.00 | 71 | 1013.7 |
| 20260510115520 | 12 | 69 | 35.4 | 43.5 | 0.00 | 0.00 | 0.00 | 73 | 1013.8 |
| 20260510115013 | 12 | 70 | 35.4 | 45.1 | 0.00 | 0.00 | 0.00 | 72 | 1013.9 |
| 20260510114604 | 12 | 63 | 33.8 | 45.1 | 0.00 | 0.00 | 0.00 | 72 | 1013.9 |
| 20260510114052 | 12 | 65 | 38.6 | 46.7 | 0.00 | 0.00 | 0.00 | 72 | 1013.9 |
| 20260510113530 | 12 | 70 | 38.6 | 46.7 | 0.00 | 0.00 | 0.00 | 72 | 1014.0 |
| 20260510113020 | 12 | 51 | 38.6 | 48.3 | 0.00 | 0.00 | 0.00 | 72 | 1014.1 |
| 20260510112514 | 12 | 59 | 40.2 | 48.3 | 0.00 | 0.00 | 0.00 | 71 | 1014.1 |
| 20260510112102 | 12 | 62 | 37.0 | 45.1 | 0.00 | 0.00 | 0.00 | 72 | 1014.1 |
| 20260510111552 | 12 | 49 | 35.4 | 43.5 | 0.00 | 0.00 | 0.00 | 73 | 1014.1 |
| 20260510111041 | 12 | 45 | 37.0 | 41.8 | 0.00 | 0.00 | 0.00 | 74 | 1014.1 |
| 20260510110534 | 12 | 55 | 29.0 | 41.8 | 0.00 | 0.00 | 0.00 | 74 | 1014.2 |
| 20260510110026 | 12 | 35 | 37.0 | 46.7 | 0.00 | 0.00 | 0.00 | 73 | 1014.1 |
| 20260510105509 | 12 | 53 | 37.0 | 46.7 | 0.00 | 0.00 | 0.00 | 73 | 1014.1 |
| 20260510105103 | 12 | 60 | 37.0 | 45.1 | 0.00 | 0.00 | 0.00 | 73 | 1014.2 |
| 20260510104553 | 12 | 50 | 35.4 | 41.8 | 0.00 | 0.00 | 0.00 | 74 | 1014.2 |
| 20260510104028 | 12 | 39 | 33.8 | 43.5 | 0.00 | 0.00 | 0.00 | 74 | 1014.1 |
| 20260510103519 | 12 | 51 | 35.4 | 43.5 | 0.00 | 0.00 | 0.00 | 74 | 1014.1 |
| 20260510103008 | 12 | 49 | 32.2 | 40.2 | 0.00 | 0.00 | 0.00 | 75 | 1014.2 |
| 20260510102559 | 12 | 48 | 32.2 | 45.1 | 0.00 | 0.00 | 0.00 | 76 | 1014.1 |
| 20260510102050 | 12 | 43 | 38.6 | 48.3 | 0.00 | 0.00 | 0.00 | 75 | 1014.2 |
| 20260510101542 | 12 | 47 | 37.0 | 46.7 | 0.00 | 0.00 | 0.00 | 75 | 1014.3 |
| 20260510101030 | 12 | 44 | 38.6 | 46.7 | 0.00 | 0.00 | 0.00 | 76 | 1014.2 |
| 20260510100522 | 12 | 45 | 38.6 | 46.7 | 0.00 | 0.00 | 0.00 | 75 | 1014.2 |
| 20260510100015 | 12 | 42 | 37.0 | 46.7 | 0.00 | 0.00 | 0.00 | 75 | 1014.4 |
| 20260510095600 | 12 | 34 | 37.0 | 48.3 | 0.00 | 0.00 | 0.00 | 76 | 1014.3 |
| 20260510095052 | 12 | 30 | 41.8 | 48.3 | 0.00 | 0.00 | 0.00 | 75 | 1014.4 |
| 20260510094552 | 11 | 50 | 38.6 | 48.3 | 0.00 | 0.00 | 0.00 | 75 | 1014.4 |
| 20260510094018 | 11 | 50 | 41.8 | 48.3 | 0.00 | 0.00 | 0.00 | 76 | 1014.5 |
| 20260510093508 | 11 | 44 | 40.2 | 46.7 | 0.00 | 0.00 | 0.00 | 77 | 1014.4 |
| 20260510093103 | 11 | 29 | 41.8 | 48.3 | 0.00 | 0.00 | 0.00 | 76 | 1014.3 |
| 20260510092552 | 11 | 32 | 40.2 | 48.3 | 0.00 | 0.00 | 0.00 | 76 | 1014.3 |
| 20260510092043 | 11 | 38 | 35.4 | 46.7 | 0.00 | 0.00 | 0.00 | 78 | 1014.4 |
| 20260510091530 | 11 | 39 | 38.6 | 48.3 | 0.00 | 0.00 | 0.00 | 78 | 1014.4 |
| 20260510091020 | 11 | 38 | 41.8 | 48.3 | 0.00 | 0.00 | 0.00 | 77 | 1014.5 |
| 20260510090510 | 11 | 33 | 38.6 | 46.7 | 0.00 | 0.00 | 0.00 | 78 | 1014.5 |
| 20260510090104 | 11 | 36 | 41.8 | 48.3 | 0.00 | 0.00 | 0.00 | 78 | 1014.5 |
| 20260510085552 | 11 | 32 | 41.8 | 49.9 | 0.00 | 0.00 | 0.00 | 78 | 1014.5 |
| 20260510085042 | 11 | 30 | 43.5 | 49.9 | 0.00 | 0.00 | 0.00 | 79 | 1014.5 |
| 20260510084531 | 11 | 41 | 41.8 | 49.9 | 0.00 | 0.00 | 0.00 | 80 | 1014.4 |
| 20260510084011 | 11 | 30 | 40.2 | 51.5 | 0.00 | 0.00 | 0.00 | 80 | 1014.5 |
| 20260510083601 | 11 | 36 | 43.5 | 53.1 | 0.00 | 0.00 | 0.00 | 79 | 1014.5 |
| 20260510083052 | 11 | 36 | 43.5 | 53.1 | 0.00 | 0.00 | 0.00 | 80 | 1014.4 |
| 20260510082541 | 11 | 36 | 40.2 | 51.5 | 0.00 | 0.00 | 0.00 | 79 | 1014.4 |
| 20260510082031 | 11 | 30 | 41.8 | 48.3 | 0.00 | 0.00 | 0.00 | 80 | 1014.4 |
| 20260510081521 | 11 | 40 | 41.8 | 48.3 | 0.00 | 0.00 | 0.00 | 79 | 1014.5 |
| 20260510081013 | 11 | 38 | 38.6 | 48.3 | 0.00 | 0.00 | 0.00 | 80 | 1014.5 |
| 20260510080502 | 11 | 35 | 40.2 | 48.3 | 0.00 | 0.00 | 0.00 | 81 | 1014.4 |
| 20260510080052 | 11 | 29 | 40.2 | 48.3 | 0.00 | 0.00 | 0.00 | 81 | 1014.4 |
| 20260510075542 | 11 | 35 | 41.8 | 48.3 | 0.00 | 0.00 | 0.00 | 80 | 1014.5 |
| 20260510075032 | 11 | 28 | 41.8 | 51.5 | 0.00 | 0.00 | 0.00 | 81 | 1014.4 |
| 20260510074522 | 10 | 44 | 43.5 | 51.5 | 0.00 | 0.00 | 0.00 | 81 | 1014.4 |
| 20260510074000 | 11 | 43 | 41.8 | 48.3 | 0.00 | 0.00 | 0.00 | 81 | 1014.4 |
| 20260510073552 | 10 | 31 | 40.2 | 48.3 | 0.00 | 0.00 | 0.00 | 81 | 1014.4 |
| 20260510073042 | 10 | 37 | 38.6 | 48.3 | 0.00 | 0.00 | 0.00 | 82 | 1014.4 |
| 20260510072533 | 10 | 40 | 40.2 | 49.9 | 0.00 | 0.00 | 0.00 | 82 | 1014.4 |
| 20260510072022 | 10 | 43 | 41.8 | 49.9 | 0.00 | 0.00 | 0.00 | 81 | 1014.4 |
| 20260510071512 | 10 | 40 | 38.6 | 49.9 | 0.00 | 0.00 | 0.00 | 82 | 1014.4 |
| 20260510071002 | 10 | 29 | 43.5 | 49.9 | 0.00 | 0.00 | 0.00 | 81 | 1014.4 |
| 20260510070554 | 10 | 34 | 40.2 | 49.9 | 0.00 | 0.00 | 0.00 | 82 | 1014.3 |
| 20260510070047 | 10 | 36 | 38.6 | 48.3 | 0.00 | 0.00 | 0.00 | 82 | 1014.3 |
| 20260510065534 | 10 | 38 | 40.2 | 48.3 | 0.00 | 0.00 | 0.00 | 81 | 1014.3 |
| 20260510065024 | 10 | 36 | 38.6 | 46.7 | 0.00 | 0.00 | 0.00 | 82 | 1014.3 |
| 20260510064519 | 10 | 27 | 37.0 | 46.7 | 0.00 | 0.00 | 0.00 | 82 | 1014.4 |
| 20260510064107 | 10 | 49 | 38.6 | 45.1 | 0.00 | 0.00 | 0.00 | 81 | 1014.5 |
| 20260510063544 | 10 | 34 | 38.6 | 48.3 | 0.00 | 0.00 | 0.00 | 82 | 1014.4 |
| 20260510063036 | 10 | 26 | 40.2 | 46.7 | 0.00 | 0.00 | 0.00 | 81 | 1014.4 |
| 20260510062523 | 10 | 34 | 40.2 | 46.7 | 0.00 | 0.00 | 0.00 | 80 | 1014.3 |
| 20260510062019 | 10 | 28 | 38.6 | 46.7 | 0.00 | 0.00 | 0.00 | 81 | 1014.4 |
| 20260510061504 | 10 | 37 | 40.2 | 46.7 | 0.00 | 0.00 | 0.00 | 81 | 1014.4 |
| 20260510061058 | 10 | 38 | 38.6 | 46.7 | 0.00 | 0.00 | 0.00 | 81 | 1014.4 |
| 20260510060546 | 10 | 33 | 38.6 | 46.7 | 0.00 | 0.00 | 0.00 | 82 | 1014.3 |
| 20260510060034 | 10 | 26 | 38.6 | 45.1 | 0.00 | 0.00 | 0.00 | 81 | 1014.3 |
| 20260510055525 | 10 | 32 | 38.6 | 46.7 | 0.00 | 0.00 | 0.00 | 82 | 1014.3 |
| 20260510055012 | 10 | 15 | 37.0 | 46.7 | 0.00 | 0.00 | 0.00 | 83 | 1014.2 |
| 20260510054502 | 10 | 21 | 38.6 | 46.7 | 0.00 | 0.00 | 0.00 | 83 | 1014.2 |
| 20260510054054 | 10 | 32 | 41.8 | 51.5 | 0.00 | 0.00 | 0.00 | 82 | 1014.1 |
| 20260510053533 | 10 | 19 | 43.5 | 51.5 | 0.00 | 0.00 | 0.00 | 82 | 1014.1 |
| 20260510053026 | 10 | 26 | 41.8 | 49.9 | 0.00 | 0.00 | 0.00 | 82 | 1014.1 |
| 20260510052512 | 10 | 24 | 41.8 | 48.3 | 0.00 | 0.00 | 0.00 | 82 | 1014.1 |
| 20260510052002 | 10 | 36 | 41.8 | 48.3 | 0.00 | 0.00 | 0.00 | 82 | 1014.0 |
| 20260510051554 | 10 | 28 | 41.8 | 51.5 | 0.00 | 0.00 | 0.00 | 82 | 1014.1 |
| 20260510051042 | 10 | 34 | 41.8 | 51.5 | 0.00 | 0.00 | 0.00 | 81 | 1014.1 |
| 20260510050533 | 11 | 24 | 41.8 | 48.3 | 0.00 | 0.00 | 0.00 | 81 | 1014.1 |
| 20260510050021 | 11 | 24 | 41.8 | 46.7 | 0.00 | 0.00 | 0.00 | 80 | 1014.1 |
| 20260510045514 | 11 | 15 | 38.6 | 45.1 | 0.00 | 0.00 | 0.00 | 80 | 1014.1 |
| 20260510045102 | 11 | 32 | 35.4 | 43.5 | 0.00 | 0.00 | 0.00 | 80 | 1014.1 |
| 20260510044557 | 11 | 18 | 38.6 | 43.5 | 0.00 | 0.00 | 0.00 | 78 | 1014.1 |
| 20260510044042 | 11 | 33 | 33.8 | 43.5 | 0.00 | 0.00 | 0.00 | 79 | 1014.2 |
| 20260510043521 | 11 | 32 | 38.6 | 43.5 | 0.00 | 0.00 | 0.00 | 79 | 1014.2 |
| 20260510043011 | 11 | 38 | 37.0 | 43.5 | 0.00 | 0.00 | 0.00 | 78 | 1014.2 |
| 20260510042605 | 11 | 32 | 37.0 | 43.5 | 0.00 | 0.00 | 0.00 | 77 | 1014.2 |
| 20260510042052 | 11 | 26 | 35.4 | 43.5 | 0.00 | 0.00 | 0.00 | 78 | 1014.1 |
| 20260510041542 | 11 | 41 | 37.0 | 41.8 | 0.00 | 0.00 | 0.00 | 77 | 1014.2 |
| 20260510041032 | 11 | 28 | 35.4 | 45.1 | 0.00 | 0.00 | 0.00 | 77 | 1014.3 |
| 20260510040522 | 11 | 42 | 37.0 | 46.7 | 0.00 | 0.00 | 0.00 | 76 | 1014.3 |
| 20260510040013 | 11 | 33 | 38.6 | 43.5 | 0.00 | 0.00 | 0.00 | 76 | 1014.3 |
| 20260510035502 | 11 | 38 | 37.0 | 43.5 | 0.00 | 0.00 | 0.00 | 75 | 1014.3 |
| 20260510035053 | 11 | 29 | 35.4 | 43.5 | 0.00 | 0.00 | 0.00 | 75 | 1014.5 |
| 20260510034547 | 11 | 30 | 37.0 | 43.5 | 0.00 | 0.00 | 0.00 | 74 | 1014.5 |
| 20260510034021 | 12 | 30 | 35.4 | 43.5 | 0.00 | 0.00 | 0.00 | 73 | 1014.5 |
| 20260510033510 | 11 | 29 | 35.4 | 43.5 | 0.00 | 0.00 | 0.00 | 71 | 1014.6 |
| 20260510033139 | 12 | 36 | 38.6 | 43.5 | 0.00 | 0.00 | 0.00 | 72 | 1014.6 |
| 20260510032553 | 12 | 37 | 33.8 | 45.1 | 0.00 | 0.00 | 0.00 | 72 | 1014.6 |
| 20260510032043 | 12 | 38 | 37.0 | 45.1 | 0.00 | 0.00 | 0.00 | 71 | 1014.6 |
| 20260510031533 | 12 | 32 | 38.6 | 45.1 | 0.00 | 0.00 | 0.00 | 70 | 1014.6 |
| 20260510031021 | 12 | 40 | 35.4 | 40.2 | 0.00 | 0.00 | 0.00 | 71 | 1014.6 |
| 20260510030511 | 12 | 34 | 33.8 | 40.2 | 0.00 | 0.00 | 0.00 | 70 | 1014.6 |
| 20260510025545 | 12 | 30 | 32.2 | 37.0 | 0.00 | 0.00 | 0.00 | 69 | 1014.7 |
| 20260510025033 | 12 | 25 | 32.2 | 37.0 | 0.00 | 0.00 | 0.00 | 69 | 1014.7 |
| 20260510024525 | 12 | 40 | 32.2 | 37.0 | 0.00 | 0.00 | 0.00 | 68 | 1014.8 |
| 20260510024001 | 12 | 39 | 27.4 | 33.8 | 0.00 | 0.00 | 0.00 | 70 | 1014.8 |
| 20260510023553 | 12 | 37 | 27.4 | 33.8 | 0.00 | 0.00 | 0.00 | 69 | 1014.8 |
| 20260510023043 | 12 | 42 | 29.0 | 33.8 | 0.00 | 0.00 | 0.00 | 68 | 1014.7 |
| 20260510022534 | 12 | 45 | 25.7 | 33.8 | 0.00 | 0.00 | 0.00 | 68 | 1014.6 |
| 20260510022022 | 12 | 42 | 29.0 | 37.0 | 0.00 | 0.00 | 0.00 | 67 | 1014.6 |
| 20260510021516 | 12 | 46 | 29.0 | 35.4 | 0.00 | 0.00 | 0.00 | 68 | 1014.6 |
| 20260510021002 | 13 | 44 | 27.4 | 33.8 | 0.00 | 0.00 | 0.00 | 68 | 1014.6 |
| 20260510020555 | 13 | 52 | 29.0 | 40.2 | 0.00 | 0.00 | 0.00 | 68 | 1014.7 |
| 20260510020047 | 13 | 59 | 29.0 | 41.8 | 0.00 | 0.00 | 0.00 | 68 | 1014.7 |
| 20260510015534 | 13 | 58 | 33.8 | 41.8 | 0.00 | 0.00 | 0.00 | 66 | 1014.7 |
| 20260510015024 | 13 | 55 | 32.2 | 37.0 | 0.00 | 0.00 | 0.00 | 66 | 1014.7 |
| 20260510014513 | 13 | 61 | 29.0 | 35.4 | 0.00 | 0.00 | 0.00 | 68 | 1014.7 |
| 20260510014105 | 13 | 55 | 29.0 | 35.4 | 0.00 | 0.00 | 0.00 | 67 | 1014.7 |
| 20260510013544 | 13 | 47 | 29.0 | 35.4 | 0.00 | 0.00 | 0.00 | 66 | 1014.6 |
| 20260510013033 | 13 | 46 | 27.4 | 35.4 | 0.00 | 0.00 | 0.00 | 68 | 1014.7 |
| 20260510012523 | 13 | 39 | 29.0 | 37.0 | 0.00 | 0.00 | 0.00 | 66 | 1014.7 |
| 20260510012017 | 13 | 39 | 32.2 | 37.0 | 0.00 | 0.00 | 0.00 | 65 | 1014.7 |
| 20260510011503 | 13 | 42 | 29.0 | 33.8 | 0.00 | 0.00 | 0.00 | 64 | 1014.7 |
| 20260510011054 | 13 | 32 | 25.7 | 33.8 | 0.00 | 0.00 | 0.00 | 64 | 1014.6 |
| 20260510010546 | 13 | 30 | 29.0 | 35.4 | 0.00 | 0.00 | 0.00 | 64 | 1014.5 |
| 20260510010035 | 13 | 30 | 30.6 | 35.4 | 0.00 | 0.00 | 0.00 | 64 | 1014.5 |
| 20260510005524 | 13 | 28 | 29.0 | 33.8 | 0.00 | 0.00 | 0.00 | 64 | 1014.6 |
| 20260510005015 | 13 | 31 | 27.4 | 33.8 | 0.00 | 0.00 | 0.00 | 66 | 1014.6 |
| 20260510004504 | 13 | 32 | 29.0 | 33.8 | 0.00 | 0.00 | 0.00 | 62 | 1014.6 |
| 20260510004056 | 13 | 47 | 29.0 | 33.8 | 0.00 | 0.00 | 0.00 | 63 | 1014.6 |
| 20260510003535 | 13 | 50 | 29.0 | 33.8 | 0.00 | 0.00 | 0.00 | 63 | 1014.6 |
| 20260510003026 | 13 | 43 | 29.0 | 35.4 | 0.00 | 0.00 | 0.00 | 64 | 1014.7 |
| 20260510002514 | 13 | 47 | 27.4 | 37.0 | 0.00 | 0.00 | 0.00 | 65 | 1014.7 |
| 20260510002005 | 13 | 44 | 27.4 | 33.8 | 0.00 | 0.00 | 0.00 | 63 | 1014.7 |
| 20260510001557 | 13 | 56 | 25.7 | 32.2 | 0.00 | 0.00 | 0.00 | 62 | 1014.7 |
| 20260510001046 | 13 | 48 | 27.4 | 32.2 | 0.00 | 0.00 | 0.00 | 60 | 1014.7 |
| 20260510000538 | 13 | 52 | 25.7 | 30.6 | 0.00 | 0.00 | 0.00 | 63 | 1014.7 |
| 20260510000051 | 13 | 53 | 25.7 | 30.6 | 0.00 | 0.00 | 0.00 | 64 | 1014.7 |
| 20260509235518 | 13 | 57 | 25.7 | 30.6 | 0.00 | 0.00 | 0.00 | 62 | 1014.7 |
| 20260509235006 | 13 | 54 | 24.1 | 32.2 | 0.00 | 0.00 | 0.00 | 63 | 1014.8 |
| 20260509234602 | 13 | 52 | 25.7 | 32.2 | 0.00 | 0.00 | 0.00 | 63 | 1014.7 |
| 20260509234048 | 13 | 55 | 25.7 | 32.2 | 0.00 | 0.00 | 0.00 | 64 | 1014.8 |
| 20260509233531 | 14 | 61 | 25.7 | 32.2 | 0.00 | 0.00 | 0.00 | 64 | 1014.7 |
| 20260509233017 | 14 | 59 | 24.1 | 29.0 | 0.00 | 0.00 | 0.00 | 63 | 1014.7 |
| 20260509232506 | 14 | 58 | 24.1 | 29.0 | 0.00 | 0.00 | 0.00 | 64 | 1014.8 |
| 20260509232058 | 14 | 55 | 22.5 | 30.6 | 0.00 | 0.00 | 0.00 | 64 | 1014.8 |
| 20260509231549 | 14 | 56 | 25.7 | 30.6 | 0.00 | 0.00 | 0.00 | 65 | 1014.8 |
| 20260509231038 | 14 | 51 | 25.7 | 30.6 | 0.00 | 0.00 | 0.00 | 66 | 1014.9 |
| 20260509230532 | 14 | 51 | 24.1 | 35.4 | 0.00 | 0.00 | 0.00 | 66 | 1014.9 |
| 20260509230017 | 14 | 51 | 27.4 | 37.0 | 0.00 | 0.00 | 0.00 | 66 | 1014.7 |
| 20260509225508 | 14 | 54 | 29.0 | 38.6 | 0.00 | 0.00 | 0.00 | 64 | 1014.7 |
| 20260509225058 | 14 | 61 | 30.6 | 38.6 | 0.00 | 0.00 | 0.00 | 65 | 1014.6 |
| 20260509224549 | 14 | 64 | 27.4 | 38.6 | 0.00 | 0.00 | 0.00 | 66 | 1014.5 |
| 20260509224039 | 14 | 56 | 32.2 | 40.2 | 0.00 | 0.00 | 0.00 | 66 | 1014.3 |
| 20260509223517 | 14 | 71 | 32.2 | 40.2 | 0.00 | 0.00 | 0.00 | 65 | 1014.3 |
| 20260509223008 | 14 | 67 | 33.8 | 40.2 | 0.00 | 0.00 | 0.00 | 65 | 1014.3 |
| 20260509222600 | 14 | 74 | 30.6 | 40.2 | 0.00 | 0.00 | 0.00 | 67 | 1014.2 |
| 20260509222049 | 14 | 69 | 25.7 | 35.4 | 0.00 | 0.00 | 0.00 | 68 | 1014.2 |
| 20260509221543 | 15 | 33 | 29.0 | 35.4 | 0.00 | 0.00 | 0.00 | 69 | 1014.2 |
| 20260509221029 | 15 | 65 | 22.5 | 35.4 | 0.00 | 0.00 | 0.00 | 68 | 1014.2 |
| 20260509220518 | 15 | 78 | 29.0 | 35.4 | 0.00 | 0.00 | 0.00 | 66 | 1014.2 |
| 20260509220009 | 15 | 67 | 25.7 | 32.2 | 0.00 | 0.00 | 0.00 | 67 | 1014.3 |
| 20260509215601 | 15 | 72 | 24.1 | 30.6 | 0.00 | 0.00 | 0.00 | 67 | 1014.3 |
| 20260509215051 | 15 | 66 | 25.7 | 30.6 | 0.00 | 0.00 | 0.00 | 68 | 1014.3 |
| 20260509214540 | 15 | 67 | 24.1 | 30.6 | 0.00 | 0.00 | 0.00 | 68 | 1014.3 |
| 20260509214030 | 15 | 64 | 25.7 | 30.6 | 0.00 | 0.00 | 0.00 | 68 | 1014.3 |
| 20260509213509 | 15 | 53 | 17.7 | 22.5 | 0.00 | 0.00 | 0.00 | 73 | 1014.3 |
| 20260509213101 | 15 | 47 | 11.3 | 22.5 | 0.00 | 0.00 | 0.00 | 75 | 1014.2 |
| 20260509212551 | 15 | 63 | 17.7 | 24.1 | 0.00 | 0.00 | 0.00 | 73 | 1014.2 |
| 20260509212040 | 15 | 63 | 20.9 | 24.1 | 0.00 | 0.00 | 0.00 | 72 | 1014.1 |
| 20260509211532 | 15 | 68 | 19.3 | 24.1 | 0.00 | 0.00 | 0.00 | 73 | 1014.2 |
| 20260509211021 | 15 | 63 | 14.5 | 19.3 | 0.00 | 0.00 | 0.00 | 74 | 1014.2 |
| 20260509210510 | 15 | 45 | 9.7 | 19.3 | 0.00 | 0.00 | 0.00 | 75 | 1014.1 |
| 20260509210108 | 15 | 37 | 14.5 | 19.3 | 0.00 | 0.00 | 0.00 | 75 | 1014.1 |
| 20260509205552 | 15 | 51 | 12.9 | 16.1 | 0.00 | 0.00 | 0.00 | 75 | 1014.1 |
| 20260509205042 | 15 | 45 | 11.3 | 19.3 | 0.00 | 0.00 | 0.00 | 74 | 1014.1 |
| 20260509204539 | 15 | 55 | 12.9 | 20.9 | 0.00 | 0.00 | 0.00 | 73 | 1014.0 |
| 20260509204012 | 15 | 59 | 16.1 | 20.9 | 0.00 | 0.00 | 0.00 | 72 | 1014.0 |
| 20260509203605 | 15 | 60 | 14.5 | 17.7 | 0.00 | 0.00 | 0.00 | 72 | 1013.9 |
| 20260509203052 | 16 | 61 | 14.5 | 17.7 | 0.00 | 0.00 | 0.00 | 71 | 1013.9 |
| 20260509202542 | 16 | 49 | 12.9 | 17.7 | 0.00 | 0.00 | 0.00 | 69 | 1013.7 |
| 20260509202031 | 16 | 40 | 12.9 | 17.7 | 0.00 | 0.00 | 0.00 | 69 | 1013.6 |
| 20260509201523 | 16 | 38 | 12.9 | 16.1 | 0.00 | 0.00 | 0.00 | 68 | 1013.5 |
| 20260509201012 | 16 | 31 | 14.5 | 17.7 | 0.00 | 0.00 | 0.00 | 68 | 1013.5 |
| 20260509200501 | 16 | 19 | 14.5 | 19.3 | 0.00 | 0.00 | 0.00 | 67 | 1013.5 |
| 20260509200106 | 16 | 19 | 14.5 | 19.3 | 0.00 | 0.00 | 0.00 | 68 | 1013.4 |
| 20260509195544 | 16 | 19 | 14.5 | 19.3 | 0.00 | 0.00 | 0.00 | 67 | 1013.3 |
| 20260509195035 | 16 | 14 | 12.9 | 17.7 | 0.00 | 0.00 | 0.00 | 67 | 1013.3 |
| 20260509194527 | 16 | 360 | 14.5 | 16.1 | 0.00 | 0.00 | 0.00 | 70 | 1013.3 |
| 20260509194003 | 16 | 21 | 12.9 | 16.1 | 0.00 | 0.00 | 0.00 | 69 | 1013.3 |
| 20260509193553 | 16 | 23 | 12.9 | 16.1 | 0.00 | 0.00 | 0.00 | 70 | 1013.2 |
| 20260509193043 | 16 | 24 | 9.7 | 12.9 | 0.00 | 0.00 | 0.00 | 68 | 1013.2 |
| 20260509192533 | 16 | 355 | 6.4 | 9.7 | 0.00 | 0.00 | 0.00 | 66 | 1013.2 |
| 20260509192023 | 16 | 346 | 4.8 | 8.0 | 0.00 | 0.00 | 0.00 | 65 | 1013.2 |
| 20260509191518 | 16 | 319 | 3.2 | 6.4 | 0.00 | 0.00 | 0.00 | 66 | 1013.3 |
| 20260509191003 | 16 | 319 | 1.6 | 6.4 | 0.00 | 0.00 | 0.00 | 66 | 1013.3 |